Gilze-Rijen, Netherlands

1:25 AM CEST on April 25, 2017 (GMT +0200)
Gilze-Rijen Air Base

Weather History for EHGR - August, 2013

Change the Weather History Date:

Thursday, August 15, 2013

  Actual Average Record
Temperature  
Mean Temperature 60 °F -  
Max Temperature 71 °F 68 °F 91 °F (2001)
Min Temperature 50 °F 52 °F 46 °F (2008)
Degree Days  
Heating Degree Days 4    
Growing Degree Days 10 (Base 50)    
Moisture  
Dew Point 55 °F    
Average Humidity 90    
Maximum Humidity 100    
Minimum Humidity 64    
Precipitation  
Precipitation 0.00 in - - ()
Sea Level Pressure  
Sea Level Pressure 30.15 in    
Wind  
Wind Speed 3 mph ()    
Max Wind Speed 13 mph    
Max Gust Speed -    
Visibility 5.5 miles    
Events Rain    
Averages and records for this station are not official NWS values.
T = Trace of Precipitation, MM = Missing Value Source: Averaged Metar Reports

Daily Weather History Graph

Daily Weather History Graph

Search for Another Location

Airport or City:

Trip Planner

Search our weather history database for the weather conditions in past years. The results will help you decide how hot, cold, wet, or windy it might be!

Date:

Astronomy

Aug. 15, 2013 Rise Set
Actual Time 6:25 AM CEST 9:02 PM CEST
Civil Twilight 5:47 AM CEST 9:40 PM CEST
Nautical Twilight 4:59 AM CEST 10:27 PM CEST
Astronomical Twilight 4:01 AM CEST 11:25 PM CEST
Moon 4:15 PM CEST (8/15) 12:12 AM CEST (8/15)
Length of Visible Light 15h 52m
Length of Day
14h 37m
First Quarter, 61% of the Moon is Illuminated
Aug 15
First Quarter
Aug 21
Full
Aug 28
Last Quarter
Sep 5
New
Sep 12
First Quarter

Hourly Weather History & Observations

Time (CEST) Temp. Dew Point Humidity Pressure Visibility Wind Dir Wind Speed Gust Speed Precip Events Conditions
12:25 AM 53.6 °F 51.8 °F 94% 30.18 in 6.2 mi SSW 2.3 mph - N/A   Unknown
12:43 AM 53.6 °F 51.8 °F 94% 30.18 in 4.3 mi WSW 1.2 mph - N/A   Mist
12:47 AM 51.8 °F 50.0 °F 94% 30.18 in 6.2 mi West 1.2 mph - N/A   Unknown
12:55 AM 51.8 °F 51.8 °F 100% 30.18 in 6.2 mi West 1.2 mph - N/A   Unknown
1:08 AM 51.8 °F 50.0 °F 94% 30.18 in 6.2 mi SSW 2.3 mph - N/A   Partly Cloudy
1:17 AM 51.8 °F 50.0 °F 94% 30.18 in 4.3 mi SW 1.2 mph - N/A   Mist
1:21 AM 51.8 °F 51.8 °F 100% 30.18 in 5.0 mi WSW 1.2 mph - N/A   Partly Cloudy
1:25 AM 51.8 °F 50.0 °F 94% 30.18 in 5.0 mi West 1.2 mph - N/A   Partly Cloudy
1:38 AM 51.8 °F 50.0 °F 94% 30.18 in 6.2 mi Calm Calm - N/A   Mostly Cloudy
1:47 AM 51.8 °F 51.8 °F 100% 30.18 in 4.3 mi Calm Calm - N/A   Scattered Clouds
1:51 AM 51.8 °F 51.8 °F 100% 30.18 in 5.6 mi Calm Calm - N/A   Scattered Clouds
1:55 AM 51.8 °F 51.8 °F 100% 30.18 in 6.2 mi Calm Calm - N/A   Mostly Cloudy
2:00 AM 51.8 °F 50.0 °F 94% 30.18 in 3.7 mi Calm Calm - N/A   Partly Cloudy
2:04 AM 51.8 °F 50.0 °F 94% 30.18 in 5.6 mi Calm Calm - N/A   Mist
2:17 AM 51.8 °F 50.0 °F 94% 30.18 in 6.2 mi South 1.2 mph - N/A   Unknown
2:21 AM 51.8 °F 50.0 °F 94% 30.18 in 3.7 mi SSW 2.3 mph - N/A   Mist
2:25 AM 51.8 °F 50.0 °F 94% 30.18 in 3.7 mi SW 1.2 mph - N/A   Mist
2:30 AM 51.8 °F 50.0 °F 94% 30.18 in - West 1.2 mph - N/A   Mist
2:35 AM 51.8 °F 50.0 °F 94% 30.18 in 3.1 mi Calm Calm - N/A   Mist
2:39 AM 50.0 °F 50.0 °F 100% 30.18 in 5.6 mi SSW 1.2 mph - N/A   Mist
2:46 AM 50.0 °F 50.0 °F 100% 30.18 in 4.3 mi South 1.2 mph - N/A   Partly Cloudy
2:50 AM 50.0 °F 50.0 °F 100% 30.18 in - South 2.3 mph - N/A   Partly Cloudy
2:55 AM 50.0 °F 50.0 °F 100% 30.18 in 4.3 mi South 1.2 mph - N/A   Partly Cloudy
2:59 AM 50.0 °F 50.0 °F 100% 30.18 in 1.8 mi South 1.2 mph - N/A   Partly Cloudy
3:05 AM 50.0 °F 50.0 °F 100% 30.18 in - South 1.2 mph - N/A   Partly Cloudy
3:09 AM 50.0 °F 50.0 °F 100% 30.18 in 4.3 mi South 2.3 mph - N/A   Partly Cloudy
3:13 AM 50.0 °F 50.0 °F 100% 30.18 in 5.0 mi South 2.3 mph - N/A   Scattered Clouds
3:20 AM 50.0 °F 50.0 °F 100% 30.18 in 4.3 mi South 2.3 mph - N/A   Mostly Cloudy
3:25 AM 50.0 °F 50.0 °F 100% 30.18 in - SSE 2.3 mph - N/A   Overcast
3:28 AM 51.8 °F 50.0 °F 94% 30.18 in 3.1 mi SE 1.2 mph - N/A   Overcast
3:39 AM 51.8 °F 50.0 °F 94% 30.15 in 5.0 mi SE 1.2 mph - N/A   Overcast
3:55 AM 51.8 °F 51.8 °F 100% 30.15 in 6.2 mi South 2.3 mph - N/A   Overcast
4:25 AM 53.6 °F 53.6 °F 100% 30.15 in 6.2 mi South 2.3 mph - N/A   Overcast
4:55 AM 53.6 °F 53.6 °F 100% 30.15 in 6.2 mi South 1.2 mph - N/A   Overcast
5:09 AM 53.6 °F 51.8 °F 94% 30.15 in 4.3 mi South 3.5 mph - N/A   Mostly Cloudy
5:15 AM 53.6 °F 51.8 °F 94% 30.15 in 5.0 mi South 2.3 mph - N/A   Mostly Cloudy
5:25 AM 53.6 °F 51.8 °F 94% 30.15 in 5.6 mi South 2.3 mph - N/A   Mist
5:26 AM 51.8 °F 50.0 °F 94% 30.15 in 4.3 mi South 2.3 mph - N/A   Mist
5:33 AM 53.6 °F 51.8 °F 94% 30.15 in - South 1.2 mph - N/A   Mist
5:36 AM 53.6 °F 51.8 °F 94% 30.15 in 3.1 mi SSE 1.2 mph - N/A   Mist
5:43 AM 51.8 °F 51.8 °F 100% 30.15 in - ESE 1.2 mph - N/A   Mist
5:48 AM 51.8 °F 51.8 °F 100% 30.15 in - ESE 1.2 mph - N/A   Mist
5:55 AM 51.8 °F 51.8 °F 100% 30.15 in 4.3 mi SE 1.2 mph - N/A   Mist
6:00 AM 51.8 °F 50.0 °F 94% 30.15 in 5.0 mi SSE 1.2 mph - N/A   Mist
6:06 AM 51.8 °F 51.8 °F 100% 30.15 in 3.7 mi SSE 1.2 mph - N/A   Mist
6:17 AM 51.8 °F 50.0 °F 94% 30.15 in 3.7 mi South 1.2 mph - N/A   Mist
6:25 AM 51.8 °F 50.0 °F 94% 30.15 in 3.1 mi South 2.3 mph - N/A   Partly Cloudy
6:29 AM 51.8 °F 50.0 °F 94% 30.15 in 5.6 mi South 3.5 mph - N/A   Partly Cloudy
6:39 AM 51.8 °F 51.8 °F 100% 30.15 in 5.6 mi SSW 5.8 mph - N/A   Scattered Clouds
6:55 AM 53.6 °F 51.8 °F 94% 30.15 in 5.6 mi SSW 5.8 mph - N/A   Overcast
7:25 AM 55.4 °F 53.6 °F 94% 30.15 in 6.2 mi SSW 5.8 mph - N/A   Overcast
7:55 AM 55.4 °F 53.6 °F 94% 30.15 in 6.2 mi SSW 4.6 mph - N/A   Mostly Cloudy
8:25 AM 57.2 °F 55.4 °F 94% 30.15 in 6.2 mi SSW 5.8 mph - N/A   Overcast
8:26 AM 57.2 °F 53.6 °F 88% 30.15 in 6.2 mi SSW 6.9 mph - N/A   Overcast
8:55 AM 59.0 °F 55.4 °F 88% 30.15 in 6.2 mi SSW 5.8 mph - N/A   Overcast
9:13 AM 60.8 °F 55.4 °F 82% 30.15 in 6.2 mi SW 5.8 mph - N/A   Overcast
9:25 AM 60.8 °F 55.4 °F 82% 30.15 in 6.2 mi SSW 6.9 mph - N/A   Mostly Cloudy
9:42 AM 60.8 °F 55.4 °F 82% 30.15 in 6.2 mi SSW 8.1 mph - N/A   Overcast
9:55 AM 60.8 °F 55.4 °F 82% 30.15 in 6.2 mi SSW 10.4 mph - N/A   Overcast
9:56 AM 60.8 °F 55.4 °F 82% 30.15 in 6.2 mi SSW 10.4 mph - N/A   Overcast
10:10 AM 60.8 °F 57.2 °F 88% 30.15 in 6.2 mi SSW 8.1 mph - N/A   Overcast
10:25 AM 60.8 °F 55.4 °F 82% 30.15 in 6.2 mi SSW 8.1 mph - N/A   Overcast
10:55 AM 60.8 °F 57.2 °F 88% 30.15 in 6.2 mi SSW 9.2 mph - N/A   Overcast
11:18 AM 60.8 °F 57.2 °F 88% 30.15 in 4.3 mi SW 6.9 mph - N/A   Overcast
11:25 AM 60.8 °F 57.2 °F 88% 30.15 in - SW 6.9 mph - N/A Rain Light Rain
11:39 AM 60.8 °F 59.0 °F 94% 30.15 in 5.6 mi SSW 8.1 mph - N/A   Mostly Cloudy
11:40 AM 60.8 °F 59.0 °F 94% 30.15 in 6.2 mi SSW 8.1 mph - N/A   Mostly Cloudy
11:55 AM 62.6 °F 59.0 °F 88% 30.15 in 6.2 mi SSW 8.1 mph - N/A   Overcast
12:10 PM 62.6 °F 59.0 °F 88% 30.15 in 6.2 mi SSW 9.2 mph - N/A   Light Drizzle
12:25 PM 62.6 °F 59.0 °F 88% 30.15 in 6.2 mi SSW 8.1 mph - N/A Rain Light Rain
12:55 PM 62.6 °F 59.0 °F 88% 30.15 in 6.2 mi SSW 6.9 mph - N/A   Light Drizzle
1:15 PM 62.6 °F 60.8 °F 94% 30.15 in 3.7 mi SSW 6.9 mph - N/A Rain Rain
1:25 PM 62.6 °F 60.8 °F 94% 30.15 in 5.0 mi SSW 6.9 mph - N/A   Light Drizzle
1:35 PM 62.6 °F 60.8 °F 94% 30.15 in 6.2 mi SSW 6.9 mph - N/A   Mostly Cloudy
1:43 PM 62.6 °F 60.8 °F 94% 30.15 in 6.2 mi SSW 8.1 mph - N/A Rain Light Rain
1:50 PM 62.6 °F 60.8 °F 94% 30.15 in 6.2 mi SSW 9.2 mph - N/A Rain Light Rain
1:55 PM 62.6 °F 60.8 °F 94% 30.15 in 6.2 mi South 11.5 mph - N/A   Drizzle
2:13 PM 64.4 °F 60.8 °F 88% 30.12 in 6.2 mi South 12.7 mph - N/A   Mostly Cloudy
2:25 PM 64.4 °F 60.8 °F 88% 30.12 in 6.2 mi SSW 10.4 mph - N/A   Mostly Cloudy
2:30 PM 64.4 °F 60.8 °F 88% 30.12 in 6.2 mi SSW 9.2 mph - N/A   Overcast
2:55 PM 66.2 °F 60.8 °F 83% 30.12 in 6.2 mi SW 8.1 mph - N/A   Overcast
3:25 PM 66.2 °F 60.8 °F 83% 30.12 in 6.2 mi SW 8.1 mph - N/A   Overcast
3:37 PM 66.2 °F 62.6 °F 88% 30.12 in 6.2 mi SW 6.9 mph - N/A   Overcast
3:55 PM 68.0 °F 62.6 °F 83% 30.12 in 6.2 mi SW 6.9 mph - N/A   Mostly Cloudy
3:59 PM 68.0 °F 62.6 °F 83% 30.12 in 6.2 mi SW 9.2 mph - N/A   Overcast
4:00 PM 69.8 °F 62.6 °F 78% 30.12 in 6.2 mi SW 9.2 mph - N/A   Overcast
4:07 PM 69.8 °F 62.6 °F 78% 30.12 in 6.2 mi SW 10.4 mph - N/A   Overcast
4:25 PM 69.8 °F 62.6 °F 78% 30.12 in 6.2 mi WSW 5.8 mph - N/A   Mostly Cloudy
4:28 PM 69.8 °F 62.6 °F 78% 30.12 in 6.2 mi SW 6.9 mph - N/A   Mostly Cloudy
4:37 PM 71.6 °F 62.6 °F 73% 30.12 in 6.2 mi WSW 6.9 mph - N/A   Overcast
4:55 PM 71.6 °F 60.8 °F 69% 30.12 in 6.2 mi WSW 6.9 mph - N/A   Mostly Cloudy
5:25 PM 71.6 °F 60.8 °F 69% 30.12 in 6.2 mi WSW 5.8 mph - N/A   Mostly Cloudy
5:55 PM 71.6 °F 60.8 °F 69% 30.09 in 6.2 mi SW 5.8 mph - N/A   Overcast
6:25 PM 71.6 °F 60.8 °F 69% 30.09 in 6.2 mi SW 3.5 mph - N/A   Overcast
6:55 PM 71.6 °F 59.0 °F 64% 30.09 in 6.2 mi WSW 4.6 mph - N/A   Overcast
7:25 PM 71.6 °F 59.0 °F 64% 30.09 in 6.2 mi SW 5.8 mph - N/A   Overcast
7:55 PM 69.8 °F 60.8 °F 73% 30.09 in 6.2 mi SSW 3.5 mph - N/A   Overcast
8:25 PM 69.8 °F 60.8 °F 73% 30.09 in 6.2 mi SSW 3.5 mph - N/A   Overcast
8:55 PM 68.0 °F 60.8 °F 78% 30.09 in 6.2 mi South 4.6 mph - N/A   Overcast
9:25 PM 66.2 °F 60.8 °F 83% 30.09 in 3.1 mi SSW 3.5 mph - N/A   Haze
9:29 PM 66.2 °F 60.8 °F 83% 30.09 in 6.2 mi SSW 3.5 mph - N/A   Unknown
9:42 PM 66.2 °F 60.8 °F 83% 30.09 in 6.2 mi SSW 4.6 mph - N/A   Unknown
9:55 PM 64.4 °F 59.0 °F 83% 30.09 in 6.2 mi SSW 3.5 mph - N/A   Partly Cloudy
10:25 PM 62.6 °F 59.0 °F 88% 30.09 in 6.2 mi South 3.5 mph - N/A   Unknown
10:55 PM 60.8 °F 59.0 °F 94% 30.09 in 6.2 mi South 3.5 mph - N/A   Unknown
11:25 PM 60.8 °F 59.0 °F 94% 30.09 in 6.2 mi South 3.5 mph - N/A   Unknown
11:55 PM 60.8 °F 57.2 °F 88% 30.09 in 6.2 mi South 2.3 mph - N/A   Unknown